This demonstration page uses our WeatherBlox Daily Observations layout. Learn more.

40.92945, -100.16068

Hourly Observations for February 27, 2019

Temp ( °F °C ) Dew Point ( °F °C ) Humidity (%) Winds ( mph kmh ) Pressure ( in mb ) Visibility ( mi km ) Precip ( " mm )
12:15 am 00:15 Clear 0 -17.6 -4 -20.1 81 81 NNW 8 13 30.54 1034 10 16.0934 0 0
12:35 am 00:35 Clear 0 -17.8 -4 -20.2 82 82 N 9 15 30.54 1034 10 16.0934 0 0
12:55 am 00:55 Clear 0 -17.7 -4 -20.1 82 82 NNW 8 13 30.55 1034 10 16.0934 0 0
1:15 am 01:15 Clear 0 -18 -5 -20.5 81 81 NNW 7 11 30.55 1035 10 16.0934 0 0
1:35 am 01:35 Clear 1 -17.5 -4 -20 81 81 NNW 8 13 30.55 1034 10 16.0934 0 0
1:55 am 01:55 Clear 0 -17.7 -5 -20.3 80 80 NNW 8 13 30.55 1034 10 16.0934 0 0
2:15 am 02:15 Clear 1 -17.4 -4 -20 80 80 NNW 8 13 30.55 1035 10 16.0934 0 0
2:35 am 02:35 Clear 1 -17.2 -4 -20 79 79 N 5 7 30.55 1035 10 16.0934 0 0
2:55 am 02:55 Clear 5 -15.1 0 -18 79 79 N 12 19 30.53 1034 10 16.0934 0 0
3:15 am 03:15 Clear 6 -14.5 0 -17.7 77 77 N 15 24 30.53 1034 10 16.0934 0 0
3:35 am 03:35 Partly Cloudy 6 -14.6 0 -18 76 76 N 13 20 30.55 1035 10 16.0934 0 0
3:55 am 03:55 Partly Cloudy 5 -14.8 -1 -18.5 74 74 N 16 26 30.56 1035 10 16.0934 0 0
4:15 am 04:15 Clear 5 -15.2 -2 -19 73 73 N 14 22 30.56 1035 10 16.0934 0 0
4:35 am 04:35 Clear 4 -15.3 -3 -19.3 72 72 NNW 13 20 30.58 1036 10 16.0934 0 0
4:55 am 04:55 Clear 4 -15.6 -3 -19.6 72 72 NNW 14 22 30.59 1036 10 16.0934 0 0
5:15 am 05:15 Clear 4 -15.6 -4 -19.9 70 70 NNW 13 20 30.6 1036 10 16.0934 0 0
5:35 am 05:35 Clear 3 -16 -4 -20 72 72 NNW 10 17 30.61 1037 10 16.0934 0 0
5:55 am 05:55 Clear 2 -16.5 -5 -20.4 72 72 NNW 9 15 30.61 1036 10 16.0934 0 0
6:15 am 06:15 Clear 3 -16.2 -5 -20.5 70 70 N 12 19 30.6 1036 10 16.0934 0 0
6:35 am 06:35 Clear 3 -16.3 -5 -20.6 70 70 N 10 17 30.61 1037 10 16.0934 0 0
6:55 am 06:55 Clear 2 -16.5 -5 -20.7 70 70 N 12 19 30.62 1037 10 16.0934 0 0
7:15 am 07:15 Clear 3 -16.2 -5 -20.6 69 69 N 12 19 30.62 1037 10 16.0934 0 0
7:35 am 07:35 Sunny 3 -16.2 -5 -20.6 69 69 N 10 17 30.62 1037 10 16.0934 0 0
7:55 am 07:55 Sunny 3 -16.1 -5 -20.5 69 69 NNW 9 15 30.63 1037 10 16.0934 0 0
8:15 am 08:15 Sunny 3 -15.9 -4 -20.2 70 70 NNW 10 17 30.63 1037 10 16.0934 0 0
8:35 am 08:35 Sunny 5 -15.1 -4 -19.8 68 68 N 18 30 30.62 1037 10 16.0934 0 0
8:55 am 08:55 Sunny 5 -14.8 -3 -19.7 67 67 N 16 26 30.62 1037 10 16.0934 0 0
9:15 am 09:15 Sunny 6 -14.7 -3 -19.6 67 67 N 17 28 30.62 1037 10 16.0934 0 0
9:35 am 09:35 Sunny 7 -14.1 -2 -19.1 66 66 N 16 26 30.62 1037 10 16.0934 0 0
9:55 am 09:55 Sunny 7 -13.8 -2 -19.1 65 65 N 17 28 30.61 1037 10 16.0934 0 0
10:15 am 10:15 Sunny 8 -13.5 -1 -18.5 66 66 N 15 24 30.6 1036 10 16.0934 0 0
10:35 am 10:35 Sunny 9 -13 0 -18 66 66 N 16 26 30.6 1036 10 16.0934 0 0
10:55 am 10:55 Sunny 9 -12.9 0 -18 66 66 N 15 24 30.6 1036 10 16.0934 0 0
11:15 am 11:15 Sunny 10 -12.2 1 -17.3 66 66 N 15 24 30.6 1036 10 16.0934 0 0
11:35 am 11:35 Sunny 10 -12 0 -17.6 63 63 N 12 19 30.58 1036 10 16.0934 0 0
11:55 am 11:55 Sunny 11 -11.8 1 -17.3 64 64 NNW 12 19 30.58 1036 10 16.0934 0 0
12:15 pm 12:15 Sunny 11 -11.6 1 -17.1 64 64 N 14 22 30.58 1036 10 16.0934 0 0
12:35 pm 12:35 Sunny 11 -11.5 1 -17.3 62 62 N 15 24 30.57 1035 10 16.0934 0 0
12:55 pm 12:55 Sunny 11 -11.5 1 -17.3 62 62 N 10 17 30.57 1035 10 16.0934 0 0
1:15 pm 13:15 Sunny 12 -11 2 -16.9 62 62 N 13 20 30.55 1035 10 16.0934 0 0
1:35 pm 13:35 Sunny 13 -10.6 3 -16.3 63 63 N 14 22 30.53 1034 10 16.0934 0 0
1:55 pm 13:55 Sunny 13 -10.5 2 -16.6 61 61 N 13 20 30.53 1034 10 16.0934 0 0
2:15 pm 14:15 Sunny 13 -10.5 2 -16.6 61 61 N 12 19 30.52 1033 10 16.0934 0 0
2:35 pm 14:35 Sunny 13 -10.4 3 -16.2 63 63 NNW 9 15 30.52 1033 10 16.0934 0 0
2:55 pm 14:55 Sunny 14 -10 3 -16 62 62 N 13 20 30.51 1033 10 16.0934 0 0
3:15 pm 15:15 Sunny 14 -10.2 3 -16.1 62 62 N 9 15 30.49 1033 10 16.0934 0 0
3:35 pm 15:35 Sunny 14 -10.1 3 -16.1 62 62 N 9 15 30.49 1033 10 16.0934 0 0
3:55 pm 15:55 Sunny 14 -10.1 3 -16 62 62 N 8 13 30.48 1032 10 16.0934 0 0
4:15 pm 16:15 Sunny 14 -10 3 -16.1 61 61 NNE 10 17 30.47 1032 10 16.0934 0 0
4:35 pm 16:35 Sunny 14 -10.1 3 -16.3 61 61 N 9 15 30.47 1032 10 16.0934 0 0
4:55 pm 16:55 Sunny 14 -10.2 3 -16.3 61 61 NNE 9 15 30.47 1032 10 16.0934 0 0
5:15 pm 17:15 Sunny 13 -10.5 3 -16.1 64 64 N 8 13 30.48 1032 10 16.0934 0 0
5:35 pm 17:35 Sunny 13 -10.5 2 -16.5 62 62 NNE 6 9 30.48 1032 10 16.0934 0 0
5:55 pm 17:55 Sunny 13 -10.8 2 -16.4 64 64 NE 6 9 30.47 1032 10 16.0934 0 0
6:15 pm 18:15 Sunny 11 -11.6 1 -17 65 65 ENE 6 9 30.47 1032 10 16.0934 0 0
6:35 pm 18:35 Clear 10 -12.2 1 -17 68 68 ENE 3 6 30.48 1032 10 16.0934 0 0
6:55 pm 18:55 Clear 10 -12.5 1 -17 69 69 ENE 3 6 30.48 1032 10 16.0934 0 0
7:15 pm 19:15 Clear 9 -12.6 1 -17.1 69 69 Calm 30.48 1032 10 16.0934 0 0
7:35 pm 19:35 Clear 10 -12.5 1 -17 69 69 Calm 30.48 1032 10 16.0934 0 0
7:55 pm 19:55 Clear 10 -12.5 1 -17 69 69 Calm 30.49 1032 10 16.0934 0 0
8:15 pm 20:15 Clear 9 -12.6 2 -16.7 72 72 Calm 30.47 1032 10 16.0934 0 0
8:35 pm 20:35 Clear 9 -12.9 2 -16.8 73 73 Calm 30.48 1032 10 16.0934 0 0
8:55 pm 20:55 Clear 8 -13.5 1 -17.2 74 74 Calm 30.49 1033 10 16.0934 0 0
9:15 pm 21:15 Clear 8 -13.2 2 -16.9 74 74 Calm 30.48 1032 10 16.0934 0 0
9:35 pm 21:35 Clear 8 -13.6 1 -17.2 75 75 Calm 30.48 1032 10 16.0934 0 0
9:55 pm 21:55 Clear 7 -13.8 1 -17.2 76 76 Calm 30.48 1032 10 16.0934 0 0
10:15 pm 22:15 Clear 8 -13.6 1 -17 76 76 Calm 30.47 1032 10 16.0934 0 0
10:35 pm 22:35 Clear 9 -12.6 3 -16.1 75 75 SW 3 6 30.46 1032 10 16.0934 0 0
10:55 pm 22:55 Clear 10 -12.3 3 -16.1 74 74 SW 3 6 30.46 1031 10 16.0934 0 0
11:15 pm 23:15 Clear 10 -12.1 3 -16 73 73 SSW 3 6 30.44 1031 10 16.0934 0 0
11:35 pm 23:35 Clear 10 -12 3 -16.1 72 72 SSE 5 7 30.41 1030 10 16.0934 0 0
11:55 pm 23:55 Clear 10 -12 3 -16.3 71 71 S 5 7 30.42 1030 10 16.0934 0 0

Powered by AerisWeather